TAM8312 SUMU-SBPA

Flight info

Callsign TAM8312
Flight time N/A
Altitude FL370
Route MOLBI UM540 ILTOG DAKA1B
Aircraft A20N/M-VGDW/C

Departure

Time 2026-04-22 14:38
Airport Carrasco General Cesáreo L. Berisso International Airport (SUMU)

Arrival

Time N/A
Airport Porto Alegre-Salgado Filho International Airport (SBPA)
Time Latitude Longitude Altitude Speed Heading
2026-04-22 14:28 -34.84330 -56.02807 116 ft 0 kts 123°
2026-04-22 14:31 -34.84329 -56.02809 116 ft 2 kts 116°
2026-04-22 14:31 -34.84326 -56.02827 116 ft 0 kts 94°
2026-04-22 14:31 -34.84328 -56.02856 116 ft 10 kts 72°
2026-04-22 14:32 -34.84364 -56.02906 116 ft 0 kts 28°
2026-04-22 14:32 -34.84354 -56.02900 116 ft 5 kts 23°
2026-04-22 14:32 -34.84296 -56.02877 116 ft 11 kts 18°
2026-04-22 14:32 -34.84217 -56.02865 116 ft 12 kts 359°
2026-04-22 14:33 -34.84127 -56.02867 116 ft 14 kts 359°
2026-04-22 14:33 -34.84029 -56.02866 116 ft 15 kts
2026-04-22 14:33 -34.83972 -56.02867 116 ft 2 kts 293°
2026-04-22 14:33 -34.83973 -56.02884 116 ft 2 kts 263°
2026-04-22 14:34 -34.83973 -56.02910 116 ft 4 kts 270°
2026-04-22 14:34 -34.83973 -56.02947 116 ft 6 kts 270°
2026-04-22 14:34 -34.83976 -56.03019 116 ft 11 kts 264°
2026-04-22 14:34 -34.84001 -56.03125 116 ft 15 kts 239°
2026-04-22 14:35 -34.84068 -56.03246 116 ft 19 kts 234°
2026-04-22 14:35 -34.84150 -56.03384 116 ft 19 kts 233°
2026-04-22 14:35 -34.84216 -56.03498 116 ft 14 kts 234°
2026-04-22 14:35 -34.84263 -56.03584 116 ft 10 kts 254°
2026-04-22 14:36 -34.84244 -56.03636 116 ft 5 kts 315°
2026-04-22 14:36 -34.84228 -56.03655 116 ft 1 kts 318°
2026-04-22 14:36 -34.84208 -56.03661 116 ft 4 kts 27°
2026-04-22 14:36 -34.84184 -56.03637 116 ft 5 kts 43°
2026-04-22 14:37 -34.84158 -56.03601 116 ft 5 kts 51°
2026-04-22 14:37 -34.84125 -56.03549 116 ft 30 kts 52°
2026-04-22 14:37 -34.83859 -56.03111 117 ft 99 kts 53°
2026-04-22 14:37 -34.83310 -56.02207 117 ft 166 kts 53°
2026-04-22 14:38 -34.82533 -56.00939 532 ft 188 kts 52°
2026-04-22 14:38 -34.81793 -55.99793 1744 ft 172 kts 47°
2026-04-22 14:38 -34.80909 -55.98535 1899 ft 224 kts 43°
2026-04-22 14:38 -34.79703 -55.97030 2052 ft 272 kts 40°
2026-04-22 14:39 -34.78216 -55.95393 2453 ft 303 kts 39°
2026-04-22 14:39 -34.76650 -55.93825 2810 ft 278 kts 34°
2026-04-22 14:39 -34.75119 -55.92456 3184 ft 269 kts 32°
2026-04-22 14:40 -34.72058 -55.89767 3989 ft 275 kts 32°
2026-04-22 14:40 -34.70540 -55.88362 4387 ft 276 kts 33°
2026-04-22 14:40 -34.69031 -55.86909 4789 ft 278 kts 34°
2026-04-22 14:40 -34.67528 -55.85415 5189 ft 280 kts 35°
2026-04-22 14:41 -34.66029 -55.83889 5613 ft 284 kts 36°
2026-04-22 14:41 -34.64489 -55.82300 6030 ft 299 kts 36°
2026-04-22 14:41 -34.62885 -55.80627 6437 ft 310 kts 37°
2026-04-22 14:41 -34.61310 -55.78965 6806 ft 316 kts 37°
2026-04-22 14:42 -34.59644 -55.77193 7206 ft 319 kts 37°
2026-04-22 14:42 -34.57969 -55.75402 7609 ft 321 kts 37°
2026-04-22 14:42 -34.56298 -55.73609 8007 ft 323 kts 37°
2026-04-22 14:42 -34.54609 -55.71796 8409 ft 325 kts 37°
2026-04-22 14:43 -34.52912 -55.69974 8809 ft 327 kts 37°
2026-04-22 14:43 -34.51206 -55.68142 9209 ft 329 kts 37°
2026-04-22 14:43 -34.49497 -55.66309 9610 ft 331 kts 37°
2026-04-22 14:43 -34.47769 -55.64457 10013 ft 333 kts 37°
2026-04-22 14:44 -34.46035 -55.62599 10411 ft 335 kts 38°
2026-04-22 14:44 -34.44286 -55.60727 10811 ft 337 kts 37°
2026-04-22 14:44 -34.42527 -55.58843 11212 ft 339 kts 37°
2026-04-22 14:44 -34.40755 -55.56948 11614 ft 341 kts 37°
2026-04-22 14:45 -34.38978 -55.55049 12013 ft 343 kts 37°
2026-04-22 14:45 -34.37178 -55.53127 12415 ft 345 kts 37°
2026-04-22 14:45 -34.35378 -55.51207 12815 ft 347 kts 37°
2026-04-22 14:45 -34.33563 -55.49276 13216 ft 349 kts 36°
2026-04-22 14:46 -34.31742 -55.47339 13616 ft 350 kts 36°
2026-04-22 14:46 -34.29914 -55.45397 14015 ft 352 kts 36°
2026-04-22 14:46 -34.28066 -55.43435 14424 ft 354 kts 36°
2026-04-22 14:46 -34.26212 -55.41470 14847 ft 357 kts 36°
2026-04-22 14:47 -34.24336 -55.39483 15274 ft 362 kts 36°
2026-04-22 14:47 -34.22440 -55.37476 15699 ft 366 kts 36°
2026-04-22 14:47 -34.20513 -55.35435 16127 ft 369 kts 36°
2026-04-22 14:47 -34.18579 -55.33389 16552 ft 373 kts 36°
2026-04-22 14:48 -34.16629 -55.31326 16977 ft 376 kts 36°
2026-04-22 14:48 -34.14658 -55.29241 17402 ft 379 kts 35°
2026-04-22 14:48 -34.12670 -55.27140 17828 ft 382 kts 35°
2026-04-22 14:48 -34.10673 -55.25031 18253 ft 385 kts 35°
2026-04-22 14:49 -34.08654 -55.22899 18679 ft 387 kts 35°
2026-04-22 14:49 -34.06623 -55.20758 19101 ft 390 kts 36°
2026-04-22 14:49 -34.04569 -55.18597 19525 ft 394 kts 35°
2026-04-22 14:49 -34.02506 -55.16425 19950 ft 397 kts 35°
2026-04-22 14:50 -34.00420 -55.14230 20376 ft 401 kts 35°
2026-04-22 14:50 -33.98317 -55.12019 20802 ft 404 kts 35°
2026-04-22 14:50 -33.96170 -55.09766 20989 ft 415 kts 35°
2026-04-22 14:50 -33.93973 -55.07465 21061 ft 423 kts 35°
2026-04-22 14:51 -33.91765 -55.05150 21072 ft 420 kts 35°
2026-04-22 14:51 -33.89572 -55.02843 21071 ft 417 kts 35°
2026-04-22 14:51 -33.87392 -55.00552 21072 ft 417 kts 35°
2026-04-22 14:51 -33.85216 -54.98266 21083 ft 417 kts 35°
2026-04-22 14:52 -33.83049 -54.95989 21333 ft 411 kts 35°
2026-04-22 14:52 -33.80909 -54.93741 21730 ft 409 kts 35°
2026-04-22 14:52 -33.78762 -54.91491 22151 ft 410 kts 35°
2026-04-22 14:52 -33.76611 -54.89241 22549 ft 412 kts 35°
2026-04-22 14:53 -33.74441 -54.86976 22929 ft 415 kts 35°
2026-04-22 14:53 -33.72259 -54.84703 23305 ft 419 kts 35°
2026-04-22 14:53 -33.70058 -54.82411 23680 ft 422 kts 35°
2026-04-22 14:53 -33.67832 -54.80095 24057 ft 425 kts 35°
2026-04-22 14:54 -33.65604 -54.77777 24432 ft 427 kts 35°
2026-04-22 14:54 -33.63349 -54.75432 24808 ft 430 kts 35°
2026-04-22 14:54 -33.61092 -54.73086 25182 ft 432 kts 35°
2026-04-22 14:54 -33.58817 -54.70722 25558 ft 434 kts 35°
2026-04-22 14:55 -33.56540 -54.68358 25931 ft 436 kts 34°
2026-04-22 14:55 -33.54242 -54.65973 26306 ft 439 kts 34°
2026-04-22 14:55 -33.51935 -54.63581 26681 ft 441 kts 34°
2026-04-22 14:55 -33.49604 -54.61167 27057 ft 444 kts 34°
2026-04-22 14:56 -33.47273 -54.58754 27430 ft 446 kts 34°
2026-04-22 14:56 -33.44932 -54.56332 27804 ft 447 kts 34°
2026-04-22 14:56 -33.42573 -54.53892 28179 ft 449 kts 33°
2026-04-22 14:56 -33.40221 -54.51462 28566 ft 449 kts 33°
2026-04-22 14:57 -33.37857 -54.49018 29001 ft 448 kts 33°
2026-04-22 14:57 -33.35505 -54.46587 29446 ft 447 kts 33°
2026-04-22 14:57 -33.33163 -54.44167 29893 ft 445 kts 33°
2026-04-22 14:57 -33.30843 -54.41770 30337 ft 442 kts 32°
2026-04-22 14:58 -33.28522 -54.39375 30783 ft 440 kts 32°
2026-04-22 14:58 -33.26214 -54.36994 31230 ft 437 kts 32°
2026-04-22 14:58 -33.23933 -54.34641 31676 ft 434 kts 31°
2026-04-22 14:58 -33.21652 -54.32294 32116 ft 430 kts 32°
2026-04-22 14:59 -33.19402 -54.29981 32557 ft 427 kts 32°
2026-04-22 14:59 -33.17163 -54.27680 32928 ft 425 kts 31°
2026-04-22 14:59 -33.14912 -54.25379 33043 ft 431 kts 31°
2026-04-22 14:59 -33.12621 -54.23048 33137 ft 437 kts 31°
2026-04-22 15:00 -33.10311 -54.20696 33430 ft 436 kts 31°
2026-04-22 15:00 -33.08017 -54.18355 33807 ft 434 kts 31°
2026-04-22 15:00 -33.05747 -54.16032 34198 ft 430 kts 31°
2026-04-22 15:00 -33.03489 -54.13720 34591 ft 426 kts 31°
2026-04-22 15:01 -33.01259 -54.11437 34912 ft 424 kts 31°
2026-04-22 15:01 -32.99003 -54.09137 35019 ft 428 kts 31°
2026-04-22 15:01 -32.94414 -54.04489 35092 ft 441 kts 31°
2026-04-22 15:02 -32.89674 -53.99702 35095 ft 455 kts 31°
2026-04-22 15:02 -32.84792 -53.94771 35099 ft 468 kts 32°
2026-04-22 15:03 -32.79780 -53.89704 35102 ft 481 kts 32°
2026-04-22 15:03 -32.74629 -53.84494 35100 ft 492 kts 32°
2026-04-22 15:04 -32.69387 -53.79190 35100 ft 502 kts 32°
2026-04-22 15:04 -32.64030 -53.73772 35105 ft 511 kts 32°
2026-04-22 15:05 -32.58585 -53.68270 35106 ft 519 kts 32°
2026-04-22 15:05 -32.53078 -53.62709 35104 ft 525 kts 33°
2026-04-22 15:06 -32.47506 -53.57052 35105 ft 532 kts 33°
2026-04-22 15:06 -32.41940 -53.51201 35106 ft 538 kts 34°
2026-04-22 15:07 -32.36385 -53.45240 35106 ft 543 kts 35°
2026-04-22 15:07 -32.30803 -53.39203 35105 ft 547 kts 35°
2026-04-22 15:08 -32.25191 -53.33122 35105 ft 549 kts 35°
2026-04-22 15:08 -32.19576 -53.27040 35105 ft 549 kts 35°
2026-04-22 15:09 -32.13958 -53.20965 35106 ft 549 kts 35°
2026-04-22 15:09 -32.08341 -53.14905 35105 ft 547 kts 35°
2026-04-22 15:10 -32.02751 -53.08889 35105 ft 544 kts 35°
2026-04-22 15:10 -31.97223 -53.02949 35105 ft 535 kts 35°
2026-04-22 15:11 -31.91765 -52.97093 35105 ft 528 kts 35°
2026-04-22 15:11 -31.86357 -52.91314 35105 ft 524 kts 34°
2026-04-22 15:12 -31.80984 -52.85591 35105 ft 522 kts 34°
2026-04-22 15:12 -31.75601 -52.79875 35107 ft 522 kts 34°
2026-04-22 15:13 -31.70223 -52.74174 35107 ft 521 kts 34°
2026-04-22 15:13 -31.64845 -52.68483 35099 ft 522 kts 34°
2026-04-22 15:14 -31.59466 -52.62796 35107 ft 522 kts 34°
2026-04-22 15:14 -31.53825 -52.57616 35110 ft 511 kts 25°
2026-04-22 15:15 -31.47809 -52.53349 35100 ft 505 kts 20°
2026-04-22 15:15 -31.41627 -52.49477 35104 ft 503 kts 18°
2026-04-22 15:16 -31.35426 -52.45775 35069 ft 497 kts 17°
2026-04-22 15:16 -31.30454 -52.42828 35012 ft 488 kts 17°
2026-04-22 15:17 -31.27427 -52.41038 34737 ft 489 kts 17°
2026-04-22 15:17 -31.24398 -52.39248 34303 ft 489 kts 17°
2026-04-22 15:17 -31.21372 -52.37453 33835 ft 486 kts 18°
2026-04-22 15:17 -31.18381 -52.35670 33362 ft 483 kts 18°
2026-04-22 15:18 -31.15408 -52.33890 32887 ft 478 kts 18°
2026-04-22 15:18 -31.12474 -52.32126 32412 ft 474 kts 18°
2026-04-22 15:18 -31.09558 -52.30368 31936 ft 469 kts 18°
2026-04-22 15:18 -31.06685 -52.28632 31464 ft 465 kts 18°
2026-04-22 15:19 -31.03833 -52.26905 30989 ft 460 kts 18°
2026-04-22 15:19 -31.01022 -52.25197 30525 ft 450 kts 18°
2026-04-22 15:19 -30.98295 -52.23533 30054 ft 438 kts 18°
2026-04-22 15:19 -30.95638 -52.21910 29577 ft 427 kts 18°
2026-04-22 15:20 -30.93039 -52.20326 29098 ft 418 kts 18°
2026-04-22 15:20 -30.90480 -52.18774 28619 ft 413 kts 18°
2026-04-22 15:20 -30.87952 -52.17249 28143 ft 409 kts 18°
2026-04-22 15:20 -30.85432 -52.15734 27666 ft 406 kts 19°
2026-04-22 15:21 -30.82936 -52.14237 27192 ft 405 kts 19°
2026-04-22 15:21 -30.80439 -52.12741 26717 ft 403 kts 19°
2026-04-22 15:21 -30.77959 -52.11254 26244 ft 402 kts 20°
2026-04-22 15:21 -30.75480 -52.09765 25768 ft 400 kts 21°
2026-04-22 15:22 -30.73023 -52.08287 25295 ft 399 kts 21°
2026-04-22 15:22 -30.70581 -52.06810 24841 ft 392 kts 20°
2026-04-22 15:22 -30.68191 -52.05359 24370 ft 385 kts 20°
2026-04-22 15:22 -30.65840 -52.03931 23894 ft 378 kts 20°
2026-04-22 15:23 -30.63533 -52.02534 23420 ft 376 kts 20°
2026-04-22 15:23 -30.61191 -52.01125 22907 ft 384 kts 21°
2026-04-22 15:23 -30.58788 -51.99691 22368 ft 396 kts 21°
2026-04-22 15:23 -30.56301 -51.98210 21823 ft 407 kts 21°
2026-04-22 15:24 -30.53775 -51.96700 21277 ft 411 kts 22°
2026-04-22 15:24 -30.51233 -51.95172 20729 ft 414 kts 22°
2026-04-22 15:24 -30.48681 -51.93621 20180 ft 416 kts 24°
2026-04-22 15:24 -30.46259 -51.91782 19630 ft 420 kts 32°
2026-04-22 15:25 -30.45148 -51.90761 19366 ft 421 kts 35°
2026-04-22 15:25 -30.42985 -51.88498 18820 ft 421 kts 40°
2026-04-22 15:25 -30.42591 -51.88051 18717 ft 420 kts 41°
2026-04-22 15:25 -30.41306 -51.86529 18372 ft 419 kts 43°
2026-04-22 15:26 -30.39343 -51.84049 17823 ft 417 kts 45°
2026-04-22 15:26 -30.38605 -51.83079 17612 ft 416 kts 45°
2026-04-22 15:26 -30.37467 -51.81552 17280 ft 414 kts 46°
2026-04-22 15:26 -30.35618 -51.79019 16731 ft 411 kts 47°
2026-04-22 15:27 -30.33804 -51.76499 16183 ft 408 kts 47°
2026-04-22 15:27 -30.32003 -51.73987 15634 ft 405 kts 47°
2026-04-22 15:27 -30.30212 -51.71496 15084 ft 401 kts 47°
2026-04-22 15:27 -30.29754 -51.70860 14942 ft 400 kts 47°
2026-04-22 15:28 -30.27998 -51.68426 14398 ft 392 kts 46°
2026-04-22 15:28 -30.26279 -51.66065 13845 ft 376 kts 46°
2026-04-22 15:28 -30.24622 -51.63809 13292 ft 362 kts 46°
2026-04-22 15:28 -30.23020 -51.61634 12739 ft 350 kts 46°
2026-04-22 15:29 -30.21468 -51.59527 12188 ft 340 kts 46°
2026-04-22 15:29 -30.19955 -51.57471 11635 ft 332 kts 46°
2026-04-22 15:29 -30.18732 -51.55808 11179 ft 326 kts 47°
2026-04-22 15:30 -30.16370 -51.52589 10311 ft 316 kts 46°
2026-04-22 15:30 -30.14958 -51.50663 9726 ft 313 kts 46°
2026-04-22 15:30 -30.13568 -51.48764 9175 ft 307 kts 47°
2026-04-22 15:30 -30.12200 -51.46897 8624 ft 303 kts 47°
2026-04-22 15:31 -30.10861 -51.45055 8084 ft 298 kts 48°
2026-04-22 15:31 -30.09641 -51.43171 7518 ft 289 kts 49°
2026-04-22 15:31 -30.08316 -51.41465 6897 ft 283 kts 44°
2026-04-22 15:31 -30.06946 -51.39859 6272 ft 279 kts 42°
2026-04-22 15:32 -30.06100 -51.38897 5888 ft 277 kts 42°
2026-04-22 15:32 -30.04728 -51.37356 5265 ft 273 kts 41°
2026-04-22 15:32 -30.03377 -51.35846 4639 ft 269 kts 41°
2026-04-22 15:32 -30.02060 -51.34377 4028 ft 260 kts 41°
2026-04-22 15:33 -30.00780 -51.32953 3369 ft 250 kts 41°
2026-04-22 15:33 -29.99595 -51.31548 2711 ft 240 kts 47°
2026-04-22 15:33 -29.98963 -51.29841 2296 ft 226 kts 80°
2026-04-22 15:33 -29.99094 -51.28111 2249 ft 213 kts 99°
2026-04-22 15:34 -29.99329 -51.26480 2262 ft 203 kts 96°
2026-04-22 15:34 -29.99352 -51.24852 2085 ft 207 kts 88°
2026-04-22 15:34 -29.99326 -51.23217 1828 ft 199 kts 89°
2026-04-22 15:34 -29.99372 -51.21621 1286 ft 197 kts 92°
2026-04-22 15:35 -29.99405 -51.20086 739 ft 189 kts 90°
2026-04-22 15:35 -29.99427 -51.18554 36 ft 190 kts 91°
2026-04-22 15:35 -29.99471 -51.16715 43 ft 224 kts 92°
2026-04-22 15:35 -29.99484 -51.16214 36 ft 221 kts 92°